カタログに戻る

DELTA 1 DEB

運用中SSO
NORAD 21331·DEBRIS·🇺🇸 United States

打ち上げ Jun 12, 1975 から Vandenberg Space Force Base

Loading…

次のパス (今後24時間)

TLE

最新Source: Space-Track

元期: Sep 14, 2026, 12:19 UTC

1 21331U 75052AZ  26257.51336671 -.00000012  00000-0  54406-4 0  9990
2 21331  99.6478  98.7489 0025401 238.9185 138.2758 13.39774191728846

AllMySatでDELTA 1 DEBをリアルタイム追跡

Download on the App Store